Weather in Povenets

Russia / Republic of Karelia     62°50′55″N   34°49′26″E
temp.,
°C
wind,
m/s
gust,
m/s
humid.,
%
clouds,
%
prec.,
mm/h
press.,
hPa
HPBL,
m
2 march, tue
tue200:000wnw5138592 0.1 1000388
03:00−2wnw5128646 0.1 1001349
06:00−2wnw6148327 0.0 1000511
09:00−3nw6148350 0.0 1002551
12:00−2nw6118050 0.0 1005764
15:00−3nw6128045 0.0 1007685
18:00−5nw5128273 0.0 1010405
21:00−7nw498343 0.0 1011190
3 march, wed
wed300:00−8w35890 0.0 101099
03:00−7wnw489224 0.0 1010172
06:00−5wnw499195 0.0 1008268
09:00−5wnw499086 0.1 1008269
12:00−3wnw488888 0.0 1006380
15:00−1wnw588391 0.0 1005931
18:00−4wsw349096 0.0 100291
21:00−3ssw249898 0.4 998149
4 march, thu
thu400:00−3se5897100 4.1 992359
03:00−3n3596100 6.6 991330
06:00−4nne81394100 1.4 991698
09:00−7n71188100 1.8 993442
12:00−8n61189100 0.0 995457
15:00−6nnw4888100 0.0 998457
18:00−8nw239386 0.0 99949
21:00−7nw379393 0.1 1000225
5 march, fri
fri500:00−12nw349553 0.0 100045
03:00−12nw349475 0.0 100294
06:00−13nw349498 0.0 100372
09:00−12n599093 0.1 1005415
12:00−13n488793 0.0 1008537
15:00−12n358567 0.0 1010398
18:00−15nnw239297 0.0 101120
21:00−17nw229571 0.0 101220
6 march, sat
sat600:00−18w229566 0.0 101220
03:00−16wsw349273 0.0 101188
06:00−13w379498 0.1 1009202
09:00−13w359497 0.1 1008142
12:00−10wsw249370 0.0 1007231
15:00−7sw359284 0.1 1006464
18:00−8ssw3595100 0.2 1004153
21:00−9ssw3495100 0.3 1002114